Weather History for KEWB - January, 2013

Change the Weather History Date:

Friday, January 18, 2013

  Actual Average Record
Temperature  
Mean Temperature 24 °F -  
Max Temperature 32 °F 34 °F 60 °F (1973)
Min Temperature 16 °F 19 °F -3 °F (1982)
Degree Days  
Heating Degree Days 41    
Moisture  
Dew Point 8 °F    
Average Humidity 53    
Maximum Humidity 86    
Minimum Humidity 28    
Precipitation  
Precipitation 0.01 in - - ()
Sea Level Pressure  
Sea Level Pressure 30.25 in    
Wind  
Wind Speed 8 mph (NNW)    
Max Wind Speed 16 mph    
Max Gust Speed 24 mph    
Visibility 8 miles    
Events Snow    
Averages and records for this station are not official NWS values.
T = Trace of Precipitation, MM = Missing Value Source: NWS Daily Summary

Daily Weather History Graph

Daily Weather History Graph

Search for Another Location

Airport or City:

Trip Planner

Search our weather history database for the weather conditions in past years. The results will help you decide how hot, cold, wet, or windy it might be!

Date:

Astronomy

Jan. 18, 2013 Rise Set
Actual Time 7:06 AM EST 4:42 PM EST
Civil Twilight 6:36 AM EST 5:12 PM EST
Nautical Twilight 6:02 AM EST 5:46 PM EST
Astronomical Twilight 5:29 AM EST 6:19 PM EST
Moon 10:36 AM EST (1/18) No Moon Set
Length of Visible Light 10h 36m
Length of Day
9h 35m
Waxing Crescent, 47% of the Moon is Illuminated
Jan 18
Waxing Crescent
Jan 18
First Quarter
Jan 26
Full
Feb 3
Last Quarter
Feb 10
New

Hourly Weather History & Observations

Time (EST) Temp. Windchill Dew Point Humidity Pressure Visibility Wind Dir Wind Speed Gust Speed Precip Events Conditions
12:53 AM 32.0 °F 27.5 °F 21.0 °F 64% 30.04 in 10.0 mi NNE 4.6 mph - N/A   Overcast
1:53 AM 30.9 °F 21.2 °F 17.1 °F 57% 30.05 in 5.0 mi North 12.7 mph 17.3 mph 0.00 in Snow Light Snow
2:01 AM 30.2 °F 21.3 °F 19.4 °F 64% 30.03 in 2.5 mi North 10.4 mph 16.1 mph 0.00 in Snow Light Snow
2:25 AM 28.4 °F 20.4 °F 21.2 °F 74% 30.06 in 1.5 mi North 8.1 mph - 0.00 in Snow Light Snow
2:53 AM 27.0 °F 18.7 °F 21.0 °F 78% 30.08 in 1.2 mi North 8.1 mph - 0.00 in Snow Light Snow
3:08 AM 26.6 °F 16.8 °F 19.4 °F 74% 30.04 in 0.8 mi North 10.4 mph - 0.00 in Snow Light Snow
3:19 AM 24.8 °F 16.1 °F 19.4 °F 80% 30.06 in 0.8 mi North 8.1 mph - 0.00 in Snow Light Snow
3:34 AM 24.8 °F 19.1 °F 21.2 °F 86% 30.09 in 1.0 mi Variable 4.6 mph - 0.00 in Snow Light Snow
3:53 AM 25.0 °F 17.1 °F 21.0 °F 85% 30.07 in 2.5 mi NE 6.9 mph - 0.00 in Snow Light Snow
4:01 AM 24.8 °F 17.9 °F 19.4 °F 80% 30.05 in 6.0 mi NE 5.8 mph - 0.00 in Snow Light Snow
4:53 AM 27.0 °F 23.0 °F 15.1 °F 61% 30.07 in 10.0 mi NNE 3.5 mph - 0.00 in   Overcast
5:53 AM 27.0 °F 18.7 °F 1.0 °F 33% 30.13 in 10.0 mi North 8.1 mph 19.6 mph N/A   Overcast
6:53 AM 24.1 °F 12.5 °F -2.9 °F 31% 30.19 in 10.0 mi North 12.7 mph 20.7 mph N/A   Mostly Cloudy
7:53 AM 23.0 °F 13.1 °F -2.0 °F 34% 30.23 in 10.0 mi NNW 9.2 mph 17.3 mph N/A   Clear
8:53 AM 23.0 °F 12.4 °F 1.0 °F 39% 30.29 in 10.0 mi NNW 10.4 mph 18.4 mph 0.01 in   Clear
9:53 AM 24.1 °F 13.7 °F -2.0 °F 32% 30.32 in 10.0 mi North 10.4 mph 17.3 mph N/A   Clear
10:53 AM 24.1 °F 12.5 °F -2.9 °F 31% 30.35 in 10.0 mi NW 12.7 mph 20.7 mph N/A   Clear
11:53 AM 25.0 °F 12.2 °F -0.9 °F 33% 30.34 in 10.0 mi WNW 16.1 mph 24.2 mph N/A   Clear
12:53 PM 26.1 °F 15.0 °F -2.0 °F 30% 30.35 in 10.0 mi NNW 12.7 mph 23.0 mph N/A   Clear
1:53 PM 26.1 °F 15.0 °F -2.0 °F 30% 30.37 in 10.0 mi WNW 12.7 mph 20.7 mph N/A   Clear
2:53 PM 27.0 °F 19.5 °F -2.0 °F 29% 30.37 in 10.0 mi NNW 6.9 mph - N/A   Clear
3:53 PM 26.1 °F 16.2 °F -2.9 °F 28% 30.40 in 10.0 mi WNW 10.4 mph - N/A   Clear
4:53 PM 24.1 °F - -2.9 °F 31% 30.42 in 10.0 mi Calm Calm - N/A   Clear
5:53 PM 21.0 °F 16.2 °F 1.9 °F 44% 30.44 in 10.0 mi West 3.5 mph - N/A   Clear
6:53 PM 21.9 °F - 1.0 °F 40% 30.46 in 10.0 mi Calm Calm - N/A   Clear
7:53 PM 18.0 °F 12.7 °F 7.0 °F 62% 30.48 in 10.0 mi West 3.5 mph - N/A   Clear
8:53 PM 19.9 °F 12.1 °F 5.0 °F 52% 30.48 in 10.0 mi South 5.8 mph - N/A   Clear
9:53 PM 18.0 °F - 7.0 °F 62% 30.45 in 10.0 mi Calm Calm - N/A   Clear
10:53 PM 16.0 °F - 9.0 °F 74% 30.44 in 10.0 mi Calm Calm - N/A   Clear
11:53 PM 17.1 °F - 10.9 °F 77% 30.43 in 10.0 mi Calm Calm - N/A   Mostly Cloudy